Location: Byszew
(52.1813°N, 19.2693°E)
Time: 06:43:11
(UTC+00:00)

NOAA 18 - Pass Details

Date: 06 July 2022
Orbit: 839 x 860 km, 98.9° (Epoch: 15 August)

Event Time Altitude Azimuth Distance (km) Brightness Sun altitude
Exits shadow 21:37:41 - 214° (SW) 2,988 7.7 -13.6°
Reaches altitude 10° 21:39:24 10° 225° (SW) 2,487 7.4 -13.7°
Maximum altitude 21:43:22 20° 271° (W) 1,888 7.2 -13.9°
Drops below altitude 10° 21:47:23 10° 318° (NW) 2,507 8.7 -14.0°
Sets 21:50:27 0° 335° (NNW) 3,451 10.1 -14.2°
